• în România
  • Lista ţărilor
  • Pe 7 zile
  • Temperatura apei
  • Hartă satelitară
  • Meteo pe hartă
  • Widget-uri
  • user-avatar
    Intrare

    Meteo pe oră la Morpeth

    Astăzi, 21 Septembrie, Vineri

    Timp Temperatura Precipitaţii Vânt Presiune Umiditate
    00:00 +8°C° 3.7 mm 7 m/s 736 mmHg 93%
    01:00 +7°C° 0.9 mm 8 m/s 736 mmHg 92%
    02:00 +6°C° 0.9 mm 8 m/s 736 mmHg 91%
    03:00 +6°C° 0.9 mm 8 m/s 736 mmHg 91%
    04:00 +6°C° 1 mm 9 m/s 737 mmHg 88%
    05:00 +6°C° 1 mm 10 m/s 738 mmHg 86%
    06:00 +5°C° 1 mm 10 m/s 739 mmHg 83%
    07:00 +6°C° 0 mm 10 m/s 740 mmHg 81%
    08:00 +7°C° 0 mm 10 m/s 741 mmHg 80%
    09:00 +8°C° 0 mm 10 m/s 742 mmHg 78%
    10:00 +8°C° 0 mm 10 m/s 742 mmHg 76%
    11:00 +10°C° 0 mm 9 m/s 742 mmHg 73%
    12:00 +10°C° 0 mm 9 m/s 743 mmHg 71%
    13:00 +11°C° 0.2 mm 9 m/s 744 mmHg 72%
    14:00 +11°C° 0.2 mm 8 m/s 745 mmHg 72%
    15:00 +11°C° 0.2 mm 8 m/s 745 mmHg 73%
    16:00 +10°C° 0.1 mm 7 m/s 747 mmHg 76%
    17:00 +9°C° 0.1 mm 6 m/s 748 mmHg 79%
    18:00 +9°C° 0.1 mm 5 m/s 749 mmHg 82%
    19:00 +8°C° 0 mm 6 m/s 750 mmHg 82%
    20:00 +8°C° 0 mm 6 m/s 750 mmHg 82%
    21:00 +6°C° 0 mm 7 m/s 751 mmHg 82%
    22:00 +6°C° 0 mm 7 m/s 752 mmHg 83%
    23:00 +6°C° 0 mm 8 m/s 752 mmHg 83%

    Mâine, 22 Septembrie, Sâmbătă

    Timp Temperatura Precipitaţii Vânt Presiune Umiditate
    00:00 +6°C° 0 mm 8 m/s 752 mmHg 84%
    01:00 +6°C° 0 mm 8 m/s 753 mmHg 83%
    02:00 +5°C° 0 mm 8 m/s 753 mmHg 82%
    03:00 +5°C° 0 mm 8 m/s 753 mmHg 81%
    04:00 +5°C° 0 mm 8 m/s 753 mmHg 80%
    05:00 +5°C° 0 mm 8 m/s 754 mmHg 80%
    06:00 +5°C° 0 mm 8 m/s 754 mmHg 80%
    07:00 +6°C° 0 mm 9 m/s 755 mmHg 77%
    08:00 +7°C° 0 mm 9 m/s 755 mmHg 74%
    09:00 +10°C° 0 mm 9 m/s 756 mmHg 71%
    10:00 +10°C° 0 mm 8 m/s 756 mmHg 69%
    11:00 +11°C° 0 mm 8 m/s 756 mmHg 66%
    12:00 +12°C° 0 mm 7 m/s 757 mmHg 63%
    13:00 +13°C° 0 mm 6 m/s 757 mmHg 63%
    14:00 +13°C° 0 mm 6 m/s 757 mmHg 64%
    15:00 +13°C° 0 mm 5 m/s 757 mmHg 65%
    16:00 +12°C° 0 mm 5 m/s 757 mmHg 70%
    17:00 +11°C° 0 mm 4 m/s 757 mmHg 75%
    18:00 +9°C° 0 mm 3 m/s 757 mmHg 80%
    19:00 +9°C° 0 mm 3 m/s 758 mmHg 82%
    20:00 +8°C° 0 mm 3 m/s 758 mmHg 84%
    21:00 +8°C° 0 mm 2 m/s 758 mmHg 85%
    22:00 +8°C° 0 mm 2 m/s 758 mmHg 85%
    23:00 +8°C° 0 mm 2 m/s 758 mmHg 84%

    Poimâine, 23 Septembrie, Duminică

    Timp Temperatura Precipitaţii Vânt Presiune Umiditate
    00:00 +9°C° 0 mm 1 m/s 758 mmHg 83%
    01:00 +8°C° 0 mm 2 m/s 757 mmHg 83%
    02:00 +8°C° 0 mm 2 m/s 757 mmHg 82%
    03:00 +8°C° 0 mm 3 m/s 757 mmHg 82%
    04:00 +8°C° 0.4 mm 3 m/s 756 mmHg 85%
    05:00 +7°C° 0.4 mm 4 m/s 755 mmHg 87%
    06:00 +7°C° 0.4 mm 4 m/s 755 mmHg 90%
    07:00 +7°C° 1.5 mm 5 m/s 755 mmHg 90%
    08:00 +7°C° 1.5 mm 6 m/s 755 mmHg 91%
    09:00 +7°C° 1.5 mm 6 m/s 755 mmHg 91%
    10:00 +8°C° 1.4 mm 7 m/s 754 mmHg 89%
    11:00 +7°C° 1.4 mm 8 m/s 754 mmHg 86%
    12:00 +7°C° 1.4 mm 8 m/s 754 mmHg 84%
    13:00 +7°C° 0.8 mm 8 m/s 754 mmHg 83%
    14:00 +7°C° 0.8 mm 8 m/s 754 mmHg 82%
    15:00 +6°C° 0.8 mm 8 m/s 754 mmHg 81%
    16:00 +6°C° 0.2 mm 8 m/s 755 mmHg 82%
    17:00 +6°C° 0.2 mm 8 m/s 756 mmHg 82%
    18:00 +6°C° 0.2 mm 7 m/s 757 mmHg 82%
    19:00 +5°C° 0 mm 7 m/s 758 mmHg 83%
    20:00 +5°C° 0 mm 7 m/s 759 mmHg 84%
    21:00 +4°C° 0 mm 7 m/s 760 mmHg 84%
    22:00 +4°C° 0 mm 6 m/s 761 mmHg 85%
    23:00 +4°C° 0 mm 6 m/s 762 mmHg 85%

    24 Septembrie, Luni

    Timp Temperatura Precipitaţii Vânt Presiune Umiditate
    00:00 +3°C° 0 mm 6 m/s 763 mmHg 86%
    01:00 +3°C° 0 mm 6 m/s 764 mmHg 86%
    02:00 +3°C° 0 mm 5 m/s 765 mmHg 87%
    03:00 +2°C° 0 mm 5 m/s 766 mmHg 87%
    04:00 +2°C° 0 mm 5 m/s 767 mmHg 87%
    05:00 +2°C° 0 mm 5 m/s 767 mmHg 87%
    06:00 +1°C° 0 mm 4 m/s 768 mmHg 87%
    07:00 +4°C° 0 mm 4 m/s 769 mmHg 83%
    08:00 +6°C° 0 mm 4 m/s 770 mmHg 79%
    09:00 +7°C° 0 mm 4 m/s 770 mmHg 75%
    10:00 +8°C° 0 mm 4 m/s 771 mmHg 71%
    11:00 +11°C° 0 mm 4 m/s 771 mmHg 67%
    12:00 +12°C° 0 mm 4 m/s 772 mmHg 63%
    13:00 +12°C° 0 mm 4 m/s 772 mmHg 62%
    14:00 +12°C° 0 mm 4 m/s 772 mmHg 60%
    15:00 +13°C° 0 mm 4 m/s 772 mmHg 59%
    16:00 +11°C° 0 mm 3 m/s 773 mmHg 64%
    17:00 +10°C° 0 mm 3 m/s 773 mmHg 69%
    18:00 +9°C° 0 mm 3 m/s 773 mmHg 75%
    19:00 +8°C° 0 mm 3 m/s 773 mmHg 77%
    20:00 +7°C° 0 mm 3 m/s 773 mmHg 80%
    21:00 +6°C° 0 mm 4 m/s 774 mmHg 83%
    22:00 +5°C° 0 mm 4 m/s 774 mmHg 84%
    23:00 +5°C° 0 mm 4 m/s 774 mmHg 85%

    25 Septembrie, Marţi

    Timp Temperatura Precipitaţii Vânt Presiune Umiditate
    00:00 +5°C° 0 mm 4 m/s 774 mmHg 85%
    01:00 +4°C° 0 mm 4 m/s 774 mmHg 86%
    02:00 +4°C° 0 mm 4 m/s 774 mmHg 86%
    03:00 +4°C° 0 mm 4 m/s 773 mmHg 87%
    04:00 +4°C° 0 mm 4 m/s 773 mmHg 87%
    05:00 +4°C° 0 mm 4 m/s 773 mmHg 87%
    06:00 +4°C° 0 mm 4 m/s 773 mmHg 88%
    07:00 +5°C° 0 mm 4 m/s 773 mmHg 83%
    08:00 +7°C° 0 mm 4 m/s 773 mmHg 79%
    09:00 +10°C° 0 mm 4 m/s 773 mmHg 75%
    10:00 +11°C° 0 mm 4 m/s 772 mmHg 72%
    11:00 +12°C° 0 mm 4 m/s 772 mmHg 69%
    12:00 +13°C° 0 mm 4 m/s 772 mmHg 66%
    13:00 +13°C° 0 mm 4 m/s 771 mmHg 67%
    14:00 +13°C° 0 mm 4 m/s 771 mmHg 68%
    15:00 +13°C° 0 mm 5 m/s 770 mmHg 69%
    16:00 +12°C° 0 mm 4 m/s 770 mmHg 73%
    17:00 +10°C° 0 mm 4 m/s 769 mmHg 78%
    18:00 +8°C° 0 mm 4 m/s 769 mmHg 83%
    19:00 +8°C° 0 mm 4 m/s 769 mmHg 84%
    20:00 +7°C° 0 mm 4 m/s 769 mmHg 85%
    21:00 +6°C° 0 mm 4 m/s 769 mmHg 86%
    22:00 +6°C° 0 mm 4 m/s 769 mmHg 86%
    23:00 +6°C° 0 mm 4 m/s 768 mmHg 86%

    26 Septembrie, Miercuri

    Timp Temperatura Precipitaţii Vânt Presiune Umiditate
    00:00 +6°C° 0 mm 4 m/s 768 mmHg 86%
    01:00 +6°C° 0 mm 4 m/s 768 mmHg 87%
    02:00 +6°C° 0 mm 5 m/s 767 mmHg 87%
    03:00 +6°C° 0 mm 5 m/s 767 mmHg 88%
    04:00 +6°C° 0 mm 5 m/s 767 mmHg 88%
    05:00 +6°C° 0 mm 5 m/s 766 mmHg 88%
    06:00 +6°C° 0 mm 5 m/s 766 mmHg 88%
    07:00 +8°C° 0 mm 5 m/s 766 mmHg 84%
    08:00 +9°C° 0 mm 5 m/s 766 mmHg 80%
    09:00 +11°C° 0 mm 6 m/s 766 mmHg 76%
    10:00 +13°C° 0 mm 6 m/s 765 mmHg 73%
    11:00 +14°C° 0 mm 6 m/s 765 mmHg 70%
    12:00 +15°C° 0 mm 6 m/s 765 mmHg 66%
    13:00 +15°C° 0 mm 6 m/s 764 mmHg 66%
    14:00 +15°C° 0 mm 5 m/s 764 mmHg 65%
    15:00 +15°C° 0 mm 5 m/s 763 mmHg 65%
    16:00 +14°C° 0 mm 5 m/s 763 mmHg 70%
    17:00 +12°C° 0 mm 5 m/s 762 mmHg 76%
    18:00 +11°C° 0 mm 4 m/s 762 mmHg 81%
    19:00 +9°C° 0 mm 5 m/s 762 mmHg 83%
    20:00 +9°C° 0 mm 5 m/s 762 mmHg 84%
    21:00 +9°C° 0 mm 5 m/s 762 mmHg 86%
    22:00 +9°C° 0 mm 6 m/s 761 mmHg 86%
    23:00 +9°C° 0 mm 6 m/s 760 mmHg 86%
    Arată mai mult